Precipitable_Water
0.92 0.93 0.96 1.09 1.23 1.29 1.34 1.38 1.36 1.36 1.34 1.29 1.25 1.29 1.28 1.24 1.38 1.38 1.31 1.25 1.22 1.23 1.24 1.13 1.12 1.06 0.93 0.84 0.78 0.76 0.81 0.85 0.89 0.94 0.97 1.00 1.01 1.07 1.10 1.16 1.18 1.08 1.05
0.90 0.91 0.99 1.13 1.24 1.29 1.33 1.36 1.34 1.35 1.31 1.25 1.24 1.32 1.27 1.22 1.34 1.39 1.35 1.30 1.27 1.23 1.23 1.17 1.12 1.10 0.96 0.86 0.85 0.89 0.94 0.87 0.76 0.81 0.84 0.86 0.87 0.90 1.01 1.08 1.15 0.98 1.00
0.84 0.93 0.98 1.15 1.28 1.33 1.33 1.33 1.35 1.32 1.26 1.22 1.25 1.33 1.28 1.23 1.27 1.31 1.32 1.30 1.25 1.21 1.22 1.15 1.07 1.10 0.98 0.95 0.98 0.97 0.97 0.90 0.95 1.02 1.05 0.99 0.78 0.84 0.93 0.99 0.88 0.89 0.91
1.00 0.97 0.92 1.07 1.21 1.31 1.37 1.37 1.34 1.27 1.23 1.23 1.31 1.32 1.29 1.23 1.23 1.23 1.22 1.23 1.22 1.19 1.17 1.12 1.04 1.04 0.98 0.97 0.98 0.98 0.95 0.87 1.01 1.16 1.24 1.22 0.97 0.90 0.93 0.93 0.93 0.94 0.96
1.19 1.04 0.88 0.93 1.04 1.18 1.28 1.30 1.28 1.22 1.22 1.25 1.30 1.33 1.28 1.26 1.25 1.21 1.16 1.15 1.18 1.18 1.13 1.07 1.02 0.99 0.98 0.98 0.97 0.94 0.89 0.82 1.05 1.19 1.22 1.21 1.07 0.89 0.91 0.93 0.98 1.00 1.13
1.19 1.00 0.92 0.91 0.96 1.04 1.14 1.24 1.20 1.22 1.25 1.23 1.26 1.27 1.26 1.28 1.28 1.22 1.16 1.20 1.17 1.12 1.07 0.99 0.96 0.95 0.96 0.97 0.95 0.91 0.85 0.78 1.02 1.18 1.21 1.13 1.08 1.09 0.86 0.93 1.02 1.05 1.01
1.17 0.92 0.93 0.97 0.96 0.94 1.01 1.10 1.21 1.24 1.24 1.21 1.22 1.21 1.18 1.20 1.21 1.18 1.12 1.12 1.15 1.11 1.06 0.95 0.90 0.90 0.91 0.90 0.88 0.86 0.80 0.75 0.95 0.99 1.03 0.99 0.97 0.95 0.81 0.87 0.92 0.93 0.92
1.17 1.05 0.99 0.95 0.93 0.96 0.99 1.03 1.10 1.14 1.13 1.12 1.14 1.16 1.17 1.16 1.13 1.12 1.09 0.99 1.01 1.05 1.03 0.96 0.91 0.89 0.85 0.83 0.81 0.75 0.69 0.66 0.82 0.95 1.01 1.04 1.06 1.00 0.76 0.81 0.86 0.88 0.89
1.33 1.26 1.28 1.19 1.10 1.01 0.98 1.03 1.05 1.04 1.04 1.04 1.06 1.10 1.13 1.14 1.14 1.12 1.06 1.02 0.98 0.94 0.94 0.93 0.92 0.93 0.90 0.85 0.79 0.76 0.74 0.72 0.69 1.01 1.05 1.15 1.16 1.02 0.88 0.79 0.84 0.86 0.87
1.25 1.24 1.28 1.34 1.41 1.39 1.28 1.07 1.05 1.07 1.06 1.07 1.06 1.05 1.04 1.03 1.03 1.06 1.04 1.07 1.06 0.99 0.94 0.89 0.88 0.89 0.90 0.88 0.86 0.82 0.80 0.77 0.69 0.72 0.92 1.06 1.05 1.00 0.98 0.81 0.87 0.93 0.93
1.23 1.22 1.19 1.24 1.34 1.41 1.51 1.37 1.13 1.14 1.12 1.10 1.06 1.04 1.03 1.04 1.22 1.30 1.22 1.18 1.08 1.00 0.95 0.92 0.89 0.88 0.86 0.84 0.85 0.87 0.86 0.81 0.79 0.80 0.98 1.05 1.07 1.07 1.01 0.90 1.00 1.07 1.10
1.09 1.14 1.22 1.26 1.27 1.35 1.45 1.46 1.45 1.46 1.43 1.37 1.31 1.32 1.33 1.21 1.21 1.32 1.24 1.15 1.05 1.05 0.84 0.83 0.84 0.87 0.87 0.85 0.86 0.92 0.98 0.99 0.94 0.75 0.99 1.07 1.09 1.08 1.02 0.95 0.96 1.05 1.12
1.03 1.08 1.15 1.23 1.29 1.31 1.33 1.47 1.57 1.64 1.63 1.52 1.49 1.49 1.48 1.45 1.36 1.32 1.30 1.22 1.22 1.23 1.11 1.05 0.95 0.93 0.93 0.87 0.83 0.89 0.99 1.06 1.08 0.95 0.94 1.04 1.05 1.04 1.00 0.95 0.90 0.95 1.04
0.96 1.02 1.09 1.19 1.25 1.35 1.45 1.47 1.54 1.61 1.65 1.70 1.81 1.83 1.63 1.47 1.44 1.35 1.27 1.26 1.31 1.33 1.21 1.21 1.11 1.07 1.07 0.99 0.92 0.91 0.93 0.99 1.02 0.97 0.93 0.93 0.94 0.97 0.96 0.93 0.92 0.90 0.94
0.87 0.93 0.97 1.03 1.08 1.16 1.26 1.41 1.53 1.55 1.54 1.59 1.64 1.73 1.83 1.86 1.75 1.68 1.54 1.46 1.35 1.30 1.25 1.19 1.15 1.09 1.00 0.97 1.02 0.99 0.91 0.87 0.87 0.88 0.87 0.91 0.91 0.92 0.90 0.83 0.82 0.85 0.87
0.81 0.79 0.80 0.81 0.87 0.93 0.98 1.11 1.21 1.36 1.47 1.50 1.50 1.55 1.59 1.64 1.70 1.74 1.77 1.72 1.66 1.57 1.44 1.40 1.38 1.26 1.16 1.10 1.01 1.01 0.99 0.97 0.95 0.93 0.93 0.92 0.88 0.85 0.83 0.79 0.77 0.76 0.76
0.75 0.74 0.74 0.77 0.81 0.85 0.93 1.05 0.99 1.01 1.07 1.13 1.26 1.41 1.47 1.50 1.49 1.52 1.57 1.62 1.65 1.71 1.67 1.63 1.49 1.42 1.36 1.25 1.17 1.05 0.97 0.93 0.91 0.93 0.92 0.89 0.85 0.83 0.82 0.82 0.84 0.81 0.77
0.70 0.70 0.71 0.72 0.73 0.75 0.88 1.04 0.97 0.93 0.96 0.99 1.04 1.10 1.18 1.30 1.40 1.45 1.46 1.46 1.51 1.61 1.65 1.59 1.57 1.58 1.49 1.50 1.44 1.40 1.20 1.14 1.06 0.99 0.95 0.93 0.91 0.87 0.83 0.79 0.82 0.84 0.80
0.66 0.65 0.64 0.64 0.65 0.68 0.77 0.89 0.92 0.89 0.87 0.90 0.92 0.94 1.00 1.03 1.10 1.21 1.27 1.33 1.42 1.48 1.49 1.45 1.46 1.50 1.47 1.51 1.55 1.51 1.50 1.40 1.29 1.17 1.08 1.01 0.95 0.92 0.90 0.87 0.83 0.77 0.75
0.65 0.65 0.65 0.65 0.64 0.64 0.66 0.73 0.78 0.76 0.80 0.80 0.76 0.80 0.84 0.86 0.89 0.92 0.96 0.99 1.09 1.19 1.31 1.32 1.36 1.41 1.40 1.45 1.44 1.46 1.60 1.56 1.52 1.48 1.38 1.26 1.13 1.05 1.00 0.95 0.93 0.92 0.89
0.58 0.56 0.55 0.55 0.57 0.59 0.60 0.62 0.63 0.61 0.63 0.64 0.68 0.68 0.70 0.69 0.74 0.75 0.78 0.81 0.86 0.89 0.94 1.06 1.14 1.29 1.21 1.35 1.32 1.30 1.36 1.45 1.45 1.49 1.43 1.37 1.32 1.29 1.22 1.16 1.13 1.09 1.06
0.48 0.47 0.47 0.48 0.50 0.53 0.55 0.60 0.61 0.62 0.62 0.64 0.66 0.67 0.66 0.64 0.65 0.65 0.67 0.70 0.71 0.73 0.78 0.83 0.87 0.95 1.02 1.22 1.24 1.22 1.02 1.24 1.31 1.48 1.63 1.67 1.60 1.56 1.54 1.52 1.48 1.47 1.45
0.43 0.44 0.45 0.44 0.44 0.47 0.53 0.56 0.57 0.58 0.57 0.57 0.58 0.60 0.61 0.60 0.57 0.64 0.64 0.65 0.64 0.63 0.62 0.68 0.74 0.74 0.76 0.95 1.06 0.99 0.91 0.87 1.06 1.27 1.34 1.66 1.56 1.54 1.67 1.66 1.69 1.65 1.66
0.42 0.42 0.41 0.39 0.38 0.39 0.40 0.39 0.41 0.39 0.39 0.45 0.49 0.50 0.51 0.51 0.51 0.53 0.55 0.56 0.57 0.58 0.54 0.57 0.64 0.67 0.69 0.69 0.84 0.93 0.98 1.03 0.83 0.85 1.09 1.19 1.27 1.39 1.46 1.57 1.63 1.60 1.68
0.43 0.42 0.40 0.38 0.35 0.34 0.33 0.34 0.32 0.31 0.32 0.34 0.35 0.35 0.36 0.36 0.38 0.39 0.44 0.48 0.49 0.51 0.50 0.51 0.52 0.54 0.53 0.58 0.60 0.67 0.73 0.81 0.92 0.85 0.78 0.82 1.04 1.24 1.31 1.35 1.49 1.52 1.59
0.40 0.38 0.37 0.33 0.31 0.32 0.32 0.32 0.32 0.29 0.30 0.28 0.30 0.29 0.31 0.32 0.33 0.34 0.35 0.35 0.36 0.36 0.34 0.37 0.43 0.47 0.46 0.49 0.51 0.55 0.53 0.52 0.58 0.69 0.69 0.73 0.77 0.84 1.02 1.16 1.25 1.30 1.32
Wind_Speed
7 7 7 7 7 8 9 8 8 8 8 9 9 10 10 11 11 11 11 11 11 11 11 11 12 12 13 14 13 13 12 12 11 10 10 9 9 8 8 7 6 7 7
7 7 7 7 8 8 8 8 8 7 8 8 8 9 9 9 10 9 9 9 10 10 11 11 11 12 12 13 12 12 11 10 9 9 8 8 7 7 6 7 7 6 6
7 7 8 7 7 8 7 7 7 6 7 7 7 8 8 8 8 8 8 8 8 9 9 9 10 10 11 11 10 9 9 8 8 7 7 7 5 5 5 5 5 5 5
8 8 7 7 7 7 6 6 6 6 6 6 6 7 7 7 7 6 6 6 6 7 7 8 8 9 9 9 8 7 6 6 5 5 4 3 4 4 4 4 4 4 3
8 7 7 7 7 6 6 5 5 5 5 4 5 5 5 5 5 5 5 5 5 5 5 6 6 7 7 6 6 5 4 4 3 2 1 3 2 2 2 2 2 2 2
7 7 7 7 7 6 6 5 5 4 4 3 3 3 3 3 3 3 3 3 3 4 4 5 5 6 5 5 4 3 3 3 2 1 2 2 2 1 1 1 1 1 1
7 7 7 6 6 6 5 5 4 4 3 2 2 2 2 2 1 1 1 2 3 3 3 4 5 5 5 4 4 4 4 4 4 3 2 3 3 3 2 3 3 3 3
7 7 6 5 5 5 4 4 3 3 2 2 1 1 0 1 1 1 2 2 3 4 4 5 6 6 6 6 6 5 5 6 6 6 6 7 6 5 5 5 5 6 6
5 4 4 3 3 3 3 2 2 1 1 1 1 1 2 2 3 3 3 4 4 5 6 7 8 8 8 8 8 8 8 8 9 9 8 7 8 8 8 8 8 8 9
4 3 2 2 1 1 0 0 0 1 1 1 2 3 4 4 5 5 5 6 6 7 8 9 10 11 11 12 11 11 11 12 12 13 11 12 12 11 11 11 12 12 12
5 4 3 2 2 2 3 3 3 3 4 4 5 5 6 6 7 8 8 8 8 10 11 12 13 13 14 15 15 15 15 15 15 16 16 15 15 15 15 15 15 15 15
6 5 5 5 5 6 6 6 7 7 7 7 7 8 8 8 8 8 10 11 11 12 13 14 15 16 17 18 18 19 18 18 18 19 18 18 18 19 19 19 19 19 20
6 6 5 6 7 8 8 8 8 9 9 10 10 11 11 11 11 11 12 12 13 13 13 14 15 17 17 19 20 21 21 21 21 20 21 22 23 23 23 23 24 24 23
6 5 6 6 7 7 8 10 11 11 11 12 13 13 14 14 15 15 14 15 15 15 16 16 17 18 19 20 21 22 24 25 25 25 25 25 26 26 26 26 27 27 27
7 7 7 8 8 9 10 11 12 12 13 14 15 15 16 16 17 17 18 18 19 19 19 19 20 20 21 22 23 24 25 26 28 29 29 29 29 29 29 29 30 30 31
9 9 9 10 10 11 12 12 13 14 15 16 17 18 18 19 20 20 21 21 22 22 23 23 22 23 23 23 25 26 27 27 28 29 29 30 31 32 33 33 33 33 34
11 11 12 13 14 15 15 15 16 17 17 18 18 19 19 21 22 22 22 22 24 26 27 27 28 28 28 28 29 28 29 30 31 31 32 32 33 34 35 35 35 35 35
13 13 14 16 17 17 18 18 19 19 20 20 20 21 21 22 22 23 24 25 26 26 27 28 29 30 31 32 31 31 32 32 33 33 34 35 35 35 35 36 36 36 37
14 15 15 16 16 18 19 18 18 18 19 20 21 22 23 24 25 24 25 26 27 28 29 30 30 31 32 34 35 36 37 37 37 36 36 36 37 38 38 38 38 39 39
14 14 16 17 17 18 18 19 19 19 19 20 21 22 23 24 26 26 27 28 28 29 30 32 33 34 35 35 37 38 38 38 38 38 38 39 39 40 40 41 41 40 41
15 15 16 16 17 17 18 19 19 19 19 19 20 20 21 22 23 25 27 28 29 30 31 32 33 35 37 38 39 39 41 42 42 42 43 43 43 43 43 43 43 43 42
15 15 15 15 16 16 16 17 18 18 18 18 18 18 19 20 22 23 24 25 27 29 31 33 35 36 37 36 36 40 40 39 37 38 39 41 39 40 41 42 42 39 40
15 15 15 15 15 16 15 15 15 15 16 16 17 17 18 19 21 21 22 23 25 26 28 30 32 34 36 37 37 37 39 39 41 39 40 31 37 41 39 39 43 41 41
14 14 14 14 14 14 14 13 13 13 14 15 17 17 18 18 20 21 22 23 24 25 26 28 30 31 33 35 36 38 39 40 40 44 43 41 43 42 41 38 34 41 42
13 13 13 12 12 12 11 12 12 13 14 14 14 15 16 17 18 19 20 21 22 23 25 26 28 29 32 34 35 37 39 41 41 43 46 47 46 43 45 47 44 41 38
13 12 11 9 8 8 8 8 8 9 9 10 11 12 13 14 15 17 18 19 20 21 23 24 25 26 29 31 33 35 37 39 43 43 47 47 48 51 49 47 45 46 49
Wind_Direction
97 98 99 107 118 125 125 118 110 102 98 93 90 90 91 95 98 97 95 93 92 93 95 100 104 105 107 110 112 112 110 108 107 105 103 101 99 98 92 86 105 98 98
105 103 99 104 116 124 126 123 115 107 103 98 94 94 93 97 101 99 97 95 94 95 98 103 106 111 113 114 114 113 110 108 107 106 104 100 97 97 91 88 100 100 99
106 107 102 102 113 122 126 125 120 114 110 104 100 98 97 100 103 102 102 99 99 99 102 106 110 115 119 120 119 117 113 111 108 108 110 99 92 94 97 97 96 101 102
110 106 105 103 109 118 122 125 124 122 118 110 107 101 99 102 105 106 108 109 107 106 108 113 119 124 126 126 125 123 121 120 117 112 114 117 90 96 104 104 104 106 108
110 107 106 105 107 113 118 119 120 125 127 120 114 106 102 103 105 108 113 119 120 119 121 125 132 137 138 138 136 136 137 137 131 122 116 135 125 110 117 118 114 114 103
114 112 109 105 103 107 113 117 120 121 125 130 126 119 113 109 108 112 122 136 141 142 144 146 150 155 159 160 163 166 171 176 179 234 249 196 156 167 172 179 175 188 239
123 118 113 109 102 100 104 111 117 122 123 125 134 135 133 130 128 137 157 178 186 184 181 181 182 184 190 195 201 210 219 223 239 263 228 228 227 229 244 245 250 256 262
121 125 119 110 104 99 100 103 109 115 122 135 145 155 203 257 256 247 233 228 223 221 219 217 214 214 217 222 229 236 243 244 248 260 270 239 235 247 260 259 261 265 269
137 130 122 128 115 104 95 97 103 108 119 139 211 250 268 278 278 271 263 256 249 244 241 239 235 234 237 240 244 247 252 255 256 257 267 243 241 252 263 262 264 266 270
177 171 164 153 156 198 144 251 277 282 276 271 271 275 280 277 273 277 272 268 264 260 255 250 247 246 248 250 252 255 259 261 260 258 263 256 252 258 265 264 265 267 270
199 205 211 225 255 269 260 270 269 274 276 279 279 280 284 280 274 274 271 270 274 272 266 260 256 255 255 256 257 259 262 265 264 261 265 257 257 262 266 265 266 267 269
208 221 242 255 268 270 278 271 271 271 274 276 277 276 281 282 281 275 274 274 276 277 270 268 264 262 261 261 261 261 262 266 267 264 266 259 261 264 267 268 267 268 269
216 231 250 261 272 273 277 273 281 276 277 275 275 277 278 279 279 279 276 275 276 275 274 271 268 267 267 265 265 265 264 265 266 266 268 264 265 267 268 269 268 268 269
216 238 255 267 275 280 278 275 278 281 282 278 281 280 277 276 276 277 278 279 277 274 276 273 272 270 269 268 268 269 267 268 268 268 270 268 267 267 269 269 269 268 268
234 251 264 271 276 284 283 281 280 280 284 284 284 283 283 279 277 279 277 278 276 276 276 276 274 273 272 270 271 270 271 270 269 269 270 269 269 269 270 271 270 269 268
247 260 268 272 278 283 282 281 285 284 283 286 284 285 283 281 280 280 277 277 277 277 275 275 276 276 273 273 274 273 271 271 271 271 271 271 270 270 271 271 271 270 269
256 265 272 273 278 280 280 280 285 285 283 285 286 286 285 283 283 282 282 280 281 279 277 277 274 274 274 275 275 274 273 272 272 272 272 272 272 272 271 271 271 270 270
262 270 275 277 279 281 282 280 284 283 282 283 285 286 286 286 285 283 281 282 284 282 281 279 277 276 275 275 276 275 274 274 275 274 273 272 272 273 273 271 271 271 270
267 272 277 280 282 283 282 282 284 283 284 282 284 285 285 286 286 286 284 285 284 283 281 281 280 280 279 277 276 275 273 274 274 274 274 274 274 274 273 273 272 271 270
269 275 275 280 284 284 283 282 283 285 285 286 288 287 287 287 286 286 285 285 286 283 283 283 282 280 281 281 278 277 276 276 275 275 274 274 274 274 274 273 272 272 271
266 272 279 283 285 287 286 285 284 286 287 288 290 292 293 293 292 290 288 288 287 285 285 285 284 283 281 283 280 280 278 276 277 276 274 274 274 274 274 273 271 271 271
268 272 278 282 287 290 290 288 284 285 287 289 292 294 297 298 298 297 296 294 293 290 289 288 287 285 282 284 283 280 279 278 277 279 280 274 275 275 275 273 271 272 273
267 272 277 283 286 290 290 291 291 291 293 293 296 298 301 302 302 302 302 301 300 299 296 294 292 290 285 283 283 282 282 277 282 276 276 280 279 279 272 278 270 270 273
266 272 276 282 286 290 292 292 296 297 298 298 298 299 301 305 307 306 306 305 304 302 302 300 297 295 291 288 283 284 278 283 280 277 276 277 279 275 279 276 278 278 272
264 270 275 280 284 288 293 295 297 300 301 302 304 306 307 310 313 315 314 313 312 310 309 307 306 302 298 292 290 287 282 280 280 279 280 277 275 277 277 278 278 276 276
261 263 268 274 281 289 296 304 310 315 316 316 317 317 317 318 321 325 325 325 324 322 320 317 316 313 308 301 297 294 290 286 281 279 280 281 279 273 278 276 277 276 277